CW5586 Lerum SE current weather conditions

sailwx.info

Wind from 315 at 5 knots gusting 13

Air temperature 1.7° C
Dewpoint 0.2° C

Last reported at 2018-Dec-10 22:01 UTC.
Time now 2018-Dec-10 23:01 UTC

Location: N 57°47' E 012°15'.
View on Google Maps.

See reports from other nearby stations

  
Tides and Currents Weather Stations Pressure Air Temp Water Temp Dewpoint Dewpoint Depression Visibility Wind Speed Wind Dir Waves Ship Positions
date/time (UTC)wind fromknots sea level pressurealtimeterstation pressurevisibilityair tempwater tempwave heightnotes
2018-Dec-10 22:01 315 5 gusting 13 1.7
2018-Dec-10 21:36 327 6 gusting 14 1.7
2018-Dec-10 21:16 339 7 gusting 15 1.7
2018-Dec-10 21:11 318 7 gusting 21 1.7
2018-Dec-10 21:06 319 8 gusting 17 1.7
2018-Dec-10 20:11 319 6 gusting 12 1.1
2018-Dec-10 20:01 334 6 gusting 14 1.7
2018-Dec-10 19:46 317 6 gusting 17 1.7
2018-Dec-10 19:16 329 6 gusting 14 1.7
2018-Dec-10 19:11 325 8 gusting 12 1.7
2018-Dec-10 19:06 318 6 gusting 13 1.7
2018-Dec-10 19:01 320 8 gusting 13 1.7
2018-Dec-10 18:31 298 5 gusting 13 1.7
2018-Dec-10 18:16 308 5 gusting 10 1.7
2018-Dec-10 18:11 301 4 gusting 10 1.7
2018-Dec-10 17:41 306 8 gusting 14 2.2
2018-Dec-10 17:31 321 6 gusting 15 2.2
2018-Dec-10 16:46 304 7 gusting 13 2.8
2018-Dec-10 16:41 292 5 gusting 18 2.8
2018-Dec-10 16:31 333 5 gusting 13 2.8
2018-Dec-10 15:41 332 6 gusting 14 3.3
2018-Dec-10 15:36 330 7 gusting 15 3.3
2018-Dec-10 15:16 325 6 gusting 13 3.3
2018-Dec-10 15:11 324 5 gusting 10 3.3
2018-Dec-10 15:01 321 5 gusting 13 3.3
2018-Dec-10 14:46 326 9 gusting 13 3.3
2018-Dec-10 14:36 337 4 gusting 10 3.3
2018-Dec-10 14:16 321 6 gusting 13 3.3
2018-Dec-10 13:46 308 5 gusting 8 3.3
2018-Dec-10 13:41 314 7 gusting 13 3.9
2018-Dec-10 13:36 303 3 gusting 12 3.9
2018-Dec-10 13:16 305 1 gusting 7 3.3
2018-Dec-10 13:06 295 3 gusting 7 3.3
2018-Dec-10 13:01 303 2 gusting 10 3.3
2018-Dec-10 12:46 285 3 gusting 5 3.3
2018-Dec-10 12:41 296 3 gusting 10 3.3
2018-Dec-10 12:31 281 3 gusting 10 3.3
2018-Dec-10 11:41 285 1 gusting 5 2.8
2018-Dec-10 11:36 280 1 gusting 6 2.8
2018-Dec-10 11:31 278 4 gusting 7 2.8
2018-Dec-10 10:31 299 2 gusting 10 2.2
2018-Dec-10 10:16 293 4 gusting 8 2.2
2018-Dec-10 10:06 279 1 gusting 4 2.2
2018-Dec-10 09:46 274 1 gusting 6 2.2
2018-Dec-10 09:36 250 0 gusting 4 2.2
2018-Dec-10 09:31 263 1 gusting 5 2.2
2018-Dec-10 09:11 255 1 gusting 4 2.2
2018-Dec-10 09:06 274 2 gusting 4 1.7
2018-Dec-10 08:31 290 1 gusting 5 1.1
2018-Dec-10 08:16 307 2 gusting 6 1.1
2018-Dec-10 07:06 265 2 gusting 8 1.1
2018-Dec-10 07:01 252 2 gusting 6 1.1
2018-Dec-10 06:41 248 1 gusting 5 1.1
2018-Dec-10 06:11 229 1 gusting 6 1.1
2018-Dec-10 05:36 293 1 gusting 2 1.1
2018-Dec-10 05:16 290 1 gusting 6 1.1
2018-Dec-10 05:06 337 1 gusting 2 1.1
2018-Dec-10 05:01 292 0 gusting 2 1.1
2018-Dec-10 04:11 311 1 gusting 2 1.1
2018-Dec-10 04:06 270 0 gusting 4 1.1
2018-Dec-10 04:01 262 2 gusting 5 1.1
2018-Dec-10 03:41 274 0 gusting 2 1.1
2018-Dec-10 03:36 283 0 gusting 5 1.1
2018-Dec-10 03:16 302 1 gusting 4 1.1
2018-Dec-10 03:11 277 2 gusting 5 1.1
2018-Dec-10 03:06 302 1 gusting 2 1.1
2018-Dec-10 03:01 302 0 gusting 5 1.1
2018-Dec-10 02:46 288 1 gusting 5 1.1
2018-Dec-10 02:41 323 2 gusting 5 1.1
2018-Dec-10 02:36 294 2 gusting 5 1.1
2018-Dec-10 02:06 303 1 gusting 2 1.1
2018-Dec-10 01:11 275 0 gusting 2 1.1
2018-Dec-10 01:01 286 1 gusting 4 1.1
2018-Dec-10 00:41 295 1 gusting 2 1.7
2018-Dec-10 00:36 276 1 gusting 2 1.1
2018-Dec-10 00:01 253 1 gusting 2 1.1
2018-Dec-09 23:16 272 1 gusting 4 1.1
2018-Dec-09 23:11 257 0 gusting 2 1.1
2018-Dec-09 23:06 277 1 gusting 4 1.1
2018-Dec-09 23:01 274 1 gusting 2 1.1
2018-Dec-09 22:46 319 1 gusting 2 1.1
2018-Dec-09 22:36 294 0 gusting 2 1.1
2018-Dec-09 22:31 283 0 gusting 4 1.1
2018-Dec-09 22:11 313 1 gusting 2 1.1
2018-Dec-09 22:01 309 1 gusting 4 1.1
2018-Dec-09 21:46 294 0 gusting 2 1.1
2018-Dec-09 21:41 304 0 gusting 2 1.1
2018-Dec-09 21:36 298 1 gusting 4 1.1
2018-Dec-09 21:11 285 0.6
2018-Dec-09 20:11 307 0 gusting 1 -0.0
2018-Dec-09 19:46 244 0 gusting 1 -0.0
2018-Dec-09 19:41 249 0 gusting 2 -0.0
2018-Dec-09 19:36 240 0 gusting 2 -0.0
2018-Dec-09 19:11 238 1 gusting 2 -0.0
2018-Dec-09 19:01 239 1 gusting 4 -0.0
2018-Dec-09 18:11 321 0 gusting 1 -0.6
2018-Dec-09 18:01 321 0 gusting 4 -0.6
2018-Dec-09 17:46 311 1 gusting 2 -1.1
2018-Dec-09 17:16 324 -0.6
2018-Dec-09 17:06 319 2 gusting 4 -0.6
2018-Dec-09 16:36 299 1 gusting 4 -0.6
2018-Dec-09 16:31 297 1 gusting 6 -0.6
2018-Dec-09 16:01 314 1 gusting 6 -0.0
2018-Dec-09 15:46 302 0 gusting 4 -0.0
2018-Dec-09 15:41 290 0 gusting 2 -0.0
2018-Dec-09 15:36 325 1 gusting 5 -0.0
2018-Dec-09 15:31 316 2 gusting 8 -0.0
2018-Dec-09 13:46 303 2 gusting 5 1.1
2018-Dec-09 13:41 295 1 gusting 7 1.7
2018-Dec-09 13:31 258 2 gusting 8 1.7
2018-Dec-09 13:16 288 2 gusting 7 1.7
2018-Dec-09 13:11 277 1 gusting 6 2.2
2018-Dec-09 13:01 274 4 gusting 7 2.2
2018-Dec-09 12:46 268 2 gusting 6 2.2
2018-Dec-09 12:41 263 1 gusting 2 2.2
2018-Dec-09 12:36 254 1 gusting 5 2.2
2018-Dec-09 12:31 253 1 gusting 6 2.2
2018-Dec-09 12:11 243 4 gusting 7 2.2
2018-Dec-09 12:06 263 3 gusting 10 2.2
2018-Dec-09 12:01 264 4 gusting 12 2.8
2018-Dec-09 11:46 259 1 gusting 4 2.8
2018-Dec-09 11:41 315 1 gusting 5 2.8
2018-Dec-09 11:36 308 3 gusting 5 2.8
2018-Dec-09 11:31 265 2 gusting 6 2.8
2018-Dec-09 11:16 309 1 gusting 2 3.3
2018-Dec-09 10:46 244 0 gusting 2 2.8
2018-Dec-09 10:41 292 0 gusting 1 2.8
2018-Dec-09 10:16 271 0 gusting 2 2.8
2018-Dec-09 10:06 279 1 gusting 4 2.8
2018-Dec-09 10:01 301 2 gusting 6 2.8
2018-Dec-09 09:46 256 3.3
2018-Dec-09 09:06 201 2.8
2018-Dec-09 09:01 198 2.8
2018-Dec-09 08:46 175 2.8
2018-Dec-09 08:36 175 2.8
2018-Dec-09 08:31 175 2.8
2018-Dec-09 08:16 175 0 gusting 2 2.8
2018-Dec-09 08:06 175 2.8
2018-Dec-09 07:46 286 2.8
2018-Dec-09 07:31 204 3.3
2018-Dec-09 07:06 205 0 gusting 2 2.8
2018-Dec-09 06:41 190 3.3
2018-Dec-09 06:36 190 3.3
2018-Dec-09 06:31 190 3.3
2018-Dec-09 06:16 190 0 gusting 1 3.3
2018-Dec-09 06:06 190 0 gusting 2 3.3
2018-Dec-09 06:01 176 1 gusting 6 3.3
2018-Dec-09 05:41 196 2 gusting 5 3.3
2018-Dec-09 05:16 188 2 gusting 6 3.3
2018-Dec-09 04:46 179 2 gusting 6 3.3
2018-Dec-09 04:41 264 1 gusting 7 3.3
2018-Dec-09 04:31 232 2 gusting 10 3.3
2018-Dec-09 04:06 247 3 gusting 10 3.3
2018-Dec-09 04:01 211 5 gusting 14 3.3
2018-Dec-09 03:46 278 1 gusting 10 3.9
2018-Dec-09 03:06 291 4 gusting 10 4.4
2018-Dec-09 03:01 259 4 gusting 17 4.4
2018-Dec-09 02:46 258 4 gusting 12 5.0
2018-Dec-09 02:41 264 3 gusting 12 5.0
2018-Dec-09 02:36 245 3 gusting 13 5.0
2018-Dec-09 02:31 219 4 gusting 10 5.0
2018-Dec-09 02:16 248 2 gusting 8 5.0
2018-Dec-09 02:11 298 2 gusting 6 5.0
2018-Dec-09 02:06 209 1 gusting 6 5.0
2018-Dec-09 01:31 220 1 gusting 7 5.0
2018-Dec-09 00:46 270 2 gusting 8 5.6
2018-Dec-09 00:41 226 2 gusting 5 5.6
2018-Dec-09 00:31 261 2 gusting 8 5.6
2018-Dec-09 00:16 255 1 gusting 6 5.6
2018-Dec-08 23:46 244 1 gusting 6 5.6
2018-Dec-08 23:41 222 1 gusting 6 5.6
2018-Dec-08 23:36 245 1 gusting 6 5.6
2018-Dec-08 23:31 170 2 gusting 8 5.6
2018-Dec-08 23:16 241 2 gusting 6 5.6
2018-Dec-08 23:06 201 6 gusting 11 5.6
2018-Dec-08 23:01 214 4 gusting 13 5.6